Location: Ústí nad Labem
(50.6611°N, 14.0531°E)
Time: 16:13:18
(UTC+02:00)

S-56A Canister/Altair - Pass Details

Date: 22 April 2024
Orbit: 638 x 2488 km, 38.9° (Epoch: 25 May)

Event Time Altitude Azimuth Distance (km) Brightness Sun altitude
Rises 21:54:11 0° 264° (W) 3,811 11.7 -14.7°
Reaches altitude 10° 21:57:04 10° 250° (WSW) 3,097 11.0 -15.0°
Maximum altitude 22:03:08 25° 199° (SSW) 2,635 10.0 -15.7°
Enters shadow 22:08:28 16° 162° (SSE) 3,538 10.4 -16.3°
